Weather in Velye

Russia / Pskov Oblast     56°58′14″N   28°34′43″E
temp.,
°C
wind,
m/s
gust,
m/s
humid.,
%
clouds,
%
prec.,
mm/h
press.,
hPa
HPBL,
m
16 june, wed
wed1600:00+11nw35817 0.0 101474
03:00+8nw35884 0.0 101683
06:00+9nw2790100 0.0 1017187
09:00+14n3469100 0.0 1018468
12:00+19nnw33475 0.0 10191283
15:00+20n2343100 0.0 10191517
18:00+20nne1244100 0.0 10191084
21:00+16sse226455 0.0 102011
17 june, thu
thu1700:00+13sw22659 0.0 102114
03:00+11sw22775 0.0 102311
06:00+12ssw22771 0.0 102347
09:00+18sw23610 0.0 1024371
12:00+23wsw12475 0.0 10251257
15:00+24sw2240100 0.0 10241671
18:00+24wnw1248100 0.0 10241577
21:00+19nne11735 0.0 102411
18 june, fri
fri1800:00+15sse22770 0.0 102516
03:00+14ssw22805 0.0 102525
06:00+14s24815 0.0 102580
09:00+21s36646 0.0 1025456
12:00+25ssw45485 0.0 10251530
15:00+27ssw46435 0.0 10241857
18:00+26ssw47515 0.0 1023754
21:00+20ssw39735 0.0 1023163
19 june, sat
sat1900:00+18ssw37824 0.0 1024100
03:00+16s37915 0.0 1024118
06:00+17ssw37895 0.0 1025179
09:00+22ssw35665 0.0 1025466
12:00+26s344738 0.0 10241446
15:00+28ssw45411 0.0 10231846
18:00+28ssw35510 0.0 1022768
21:00+22ssw34723 0.0 102270
20 june, sun
sun2000:00+18s39859 0.0 1023147
03:00+16s38935 0.0 1023144
06:00+17s36924 0.0 1023174
09:00+23s456839 0.0 1022535
12:00+26s565364 0.0 10211433
15:00+28ssw454590 0.0 10202041
18:00+28sw345154 0.0 1020921
21:00+22ssw35714 0.0 102080